Погода в Курмангазах

Казахстан     46°36′28″N   49°16′16″E
темп.,
°C
ветер,
м/с
пор.,
м/с
влажн.,
%
обл.,
%
осадки,
мм/ч
давл.,
гПа
погр.,
м
1 марта, пн
пн123:00−1с237791 0.0 101787
02:00−2ссз1275100 0.0 101840
05:00−2сз017398 0.0 102026
08:00−2зсз227382 0.0 102152
11:000сз456882 0.0 1023721
14:00+1сз456899 0.0 1024738
17:00+1сз566292 0.0 1024801
20:00−1с237330 0.0 102624
2 марта, вт
вт223:00−2всв007732 0.0 102721
02:00−1ююз228272 0.0 102764
05:00−1св119686 0.3 102763
08:00−2ссз119696 0.1 102739
11:00+1зюз237979 0.1 1027385
14:00+2зюз577685 0.1 1025789
17:00+3зюз686892 0.1 10231017
20:00+2зюз6117596 0.0 1022497
3 марта, ср
ср323:00+2зюз6127399 0.1 1020644
02:00+2юз61275100 0.0 1018531
05:00+2юз71477100 0.0 1016582
08:00+2зюз71483100 0.0 1013748
11:00+3зюз91477100 0.1 1013895
14:00+3зюз9148499 0.0 10121013
17:00+3зюз101589100 0.2 10111022
20:00+2з101496100 0.8 1011867
4 марта, чт
чт423:00+1сз91396100 1.1 1014748
02:00−1зсз6128568 0.0 1017622
05:00−2сз7117539 0.0 1019790
08:00−2зсз6107659 0.0 1021799
11:000зсз796039 0.0 1023912
14:00+2зсз67540 0.0 1024929
17:00+3з57480 0.0 1024818
20:00+1юз34590 0.0 102378
5 марта, пт
пт523:000ююз59670 0.0 1024200
02:00−1ююз510710 0.0 1024243
05:00−1юз611730 0.0 1023284
08:00−1юз611820 0.0 1022273
11:00+3юз711650 0.0 1023553
14:00+6юз79540 0.0 1022950
17:00+6ююз79570 0.0 1021842
20:00+3ююз711780 0.0 1021324